Location: Azalea Creek
(37.1280°N, 119.2623°W)
Time: 18:11:53
(UTC+00:00)

STARLINK-54 - Pass Details

Date: 17 February 2020
Orbit: 529 x 530 km, 53.0° (Epoch: 01 April)

Event Time Altitude Azimuth Distance (km) Brightness Sun altitude
Rises 03:09:45 0° 229° (SW) 2,651 7.9 -19.0°
Reaches altitude 10° 03:11:57 10° 231° (SW) 1,766 6.9 -19.4°
Maximum altitude 03:15:58 79° 318° (NW) 542 3.5 -20.2°
Enters shadow 03:16:57 49° 35° (NE) 685 3.8 -20.4°
